Flag Weather past 2 weeks in Worms, Rhineland-Palatinate, Germany

Now
50 °F

Fog.


Feels Like: 50 °F
Forecast: 46 / 61 °F
Wind: 1 mph from North

Location: Baden Wurttemberg - Neuostheim

Current Time: Oct 31, 2014 at 12:15:44 AM

Latest Report: Oct 30, 2014 at 9:20 PM


Visibility: 3 mi

Pressure: 30.30 "Hg

Humidity: 100%

Dew point: 50 °F

Location of WormsLocation

Historic Weather in Worms — Graph

°F

Worms temperature yesterday

Maximum temperature yesterday: 59 °F (at 1:20 PM)
Minimum temperature yesterday: 50 °F (at 5:20 AM)
Average temperature yesterday: 55 °F

Past Weeks' High & Low Weather Summary

 TemperatureHumidityPressure
High75 °F (Oct 19, 4:20 PM)100% (Oct 17, 5:50 AM)30.33 "Hg (Oct 17, 5:50 AM)
Low37 °F (Oct 24, 6:20 AM)57% (Oct 18, 4:20 PM)29.62 "Hg (Oct 21, 5:50 PM)
Average55 °F79%30.11 "Hg
* Reported Oct 16 4:50 AM — Oct 30 9:20 PM, Worms, Weather by CustomWeather, © 2014

Note: Actual official high and low records may vary slightly from our data, if they occured in-between our weather recording intervals... More about our weather records

Advertising

Worms weather history for previous 24 hours

 ConditionsComfort  
Time TempWeatherWind HumidityBarometerVisibility
9:20 PM
Oct 30
50 °FFog.1 mph100%30.30 "Hg3 mi
8:50 PM52 °FClear.No wind100%30.30 "Hg4 mi
8:20 PM52 °FClear.2 mph94%30.27 "Hg6 mi
7:50 PM54 °FClear.1 mph94%30.27 "Hg4 mi
7:20 PM54 °FPassing clouds.1 mph94%30.27 "Hg4 mi
6:50 PM57 °FPassing clouds.1 mph88%30.27 "Hg5 mi
6:20 PM57 °FPassing clouds.1 mph88%30.27 "Hg5 mi
5:50 PM59 °FPassing clouds.3 mph82%30.27 "Hg4 mi
5:20 PM59 °FPassing clouds.2 mph82%30.27 "Hg4 mi
4:50 PM59 °FPartly sunny.3 mph82%30.27 "HgN/A
4:20 PM59 °FOvercast.2 mph82%30.27 "HgN/A
3:50 PM59 °FOvercast.2 mph82%30.27 "HgN/A
3:20 PM59 °FBroken clouds.2 mph82%30.27 "HgN/A
2:50 PM59 °FOvercast.3 mph82%30.27 "HgN/A
2:20 PM59 °FBroken clouds.3 mph77%30.27 "Hg4 mi
1:50 PM59 °FMore clouds than sun.5 mph77%30.27 "Hg4 mi
1:20 PM59 °FOvercast.3 mph77%30.27 "HgN/A
12:50 PM57 °FOvercast.5 mph82%30.27 "HgN/A
12:20 PM57 °FMostly cloudy.3 mph82%30.27 "HgN/A
11:50 AM57 °FMore clouds than sun.3 mph82%30.27 "Hg5 mi
11:20 AM55 °FMore clouds than sun.3 mph88%30.27 "Hg5 mi
10:50 AM55 °FMore clouds than sun.3 mph88%30.27 "Hg5 mi
10:20 AM55 °FBroken clouds.3 mph88%30.27 "Hg5 mi
9:50 AM54 °FMostly cloudy.3 mph94%30.24 "Hg4 mi
9:20 AM54 °FFog.6 mph94%30.24 "Hg3 mi
8:50 AM52 °FFog.3 mph100%30.24 "Hg3 mi
8:20 AM52 °FFog.2 mph94%30.24 "Hg3 mi
7:50 AM52 °FFog.2 mph94%30.24 "Hg2 mi
7:20 AM52 °FFog.3 mph94%30.21 "Hg2 mi
6:50 AM52 °FFog.2 mph94%30.21 "Hg3 mi
6:20 AM50 °FMostly cloudy.3 mph100%30.21 "Hg4 mi
5:50 AM50 °FMostly cloudy.3 mph100%30.21 "Hg4 mi
5:20 AM50 °FFog.3 mph100%30.18 "Hg3 mi
Weather by CustomWeather, © 2014

See weather overviewHow to use our weather pages